DW8500 Weather Reports


Display with metric or nautical units.
time (UTC)temp
F
wind
direction
speed
MPH
gust
MPH
rain 1hr
in
rain 24hr
in
rain mn
in
humidity
%
barometer
mb
20260510230721 62 286 1.0 3.0 0.00 0.01 0.01 58 1012.6
20260510230218 63 110 0.0 1.0 0.00 0.01 0.01 58 1012.5
20260510225721 63 110 0.0 3.0 0.00 0.05 0.01 58 1012.4
20260510225217 63 258 0.0 4.0 0.00 0.05 0.01 57 1012.2
20260510224719 63 214 1.0 6.0 0.00 0.05 0.01 57 1012.3
20260510224217 64 280 2.0 7.0 0.00 0.05 0.01 56 1012.2
20260510223719 64 140 2.0 10.0 0.00 0.05 0.01 55 1012.3
20260510223218 65 236 1.0 10.0 0.00 0.05 0.01 54 1012.3
20260510222717 66 219 2.0 7.0 0.00 0.05 0.01 53 1012.2
20260510222212 66 302 3.0 6.0 0.00 0.05 0.01 51 1012.1
20260510221731 66 274 1.0 5.0 0.00 0.05 0.01 51 1011.9
20260510221227 67 245 1.0 2.0 0.00 0.05 0.01 51 1011.6
20260510220708 67 269 0.0 4.0 0.00 0.05 0.01 51 1011.6
20260510220227 67 229 1.0 4.0 0.00 0.05 0.01 50 1011.4
20260510220140 67 228 1.0 4.0 0.00 0.05 0.01 50 1011.4
20260510215727 68 255 0.0 5.0 0.00 0.13 0.01 49 1011.1
20260510215223 68 198 1.0 6.0 0.00 0.13 0.01 47 1011.1
20260510214723 69 248 1.0 3.0 0.00 0.13 0.01 46 1011.1
20260510214636 69 240 1.0 3.0 0.00 0.13 0.01 46 1011.0
20260510214220 69 234 1.0 4.0 0.00 0.13 0.01 43 1011.0
20260510213718 70 140 1.0 4.0 0.00 0.13 0.01 43 1010.8
20260510213216 70 283 1.0 3.0 0.00 0.13 0.01 41 1010.7
20260510212713 70 294 1.0 2.0 0.00 0.13 0.01 42 1010.6
20260510212209 70 349 1.0 2.0 0.00 0.13 0.01 43 1010.8
20260510211711 69 99 1.0 4.0 0.00 0.13 0.01 44 1010.8
20260510211227 70 166 0.0 4.0 0.00 0.13 0.01 43 1010.9
20260510210708 70 274 2.0 4.0 0.00 0.13 0.01 42 1010.9
20260510210226 70 261 1.0 5.0 0.00 0.13 0.01 42 1011.0
20260510210141 69 195 0.0 5.0 0.00 0.13 0.01 42 1011.0
20260510205726 69 257 2.0 5.0 0.00 0.27 0.01 42 1010.9
20260510205223 70 279 2.0 7.0 0.00 0.27 0.01 41 1010.8
20260510204722 71 208 1.0 7.0 0.00 0.27 0.01 39 1010.9
20260510204636 70 6 1.0 7.0 0.00 0.27 0.01 39 1010.9
20260510204220 72 309 1.0 4.0 0.00 0.27 0.01 37 1010.8
20260510203720 72 224 1.0 9.0 0.00 0.27 0.01 36 1010.7
20260510203218 72 248 2.0 9.0 0.00 0.27 0.01 37 1010.8
20260510203133 72 69 2.0 9.0 0.00 0.27 0.01 36 1010.8
20260510202745 73 259 2.0 6.0 0.00 0.27 0.01 35 1010.8
20260510202221 73 359 1.0 5.0 0.00 0.27 0.01 37 1010.6
20260510201721 73 245 2.0 6.0 0.00 0.27 0.01 38 1010.5
20260510201636 73 113 2.0 6.0 0.00 0.27 0.01 39 1010.6
20260510201216 73 169 2.0 6.0 0.00 0.27 0.01 39 1010.8
20260510200736 72 224 1.0 5.0 0.00 0.27 0.01 40 1010.8
20260510200235 71 309 1.0 8.0 0.00 0.27 0.01 42 1010.8
20260510195713 71 323 3.0 7.0 0.00 0.28 0.01 43 1010.8
20260510195213 71 26 1.0 6.0 0.00 0.28 0.01 44 1010.9
20260510194734 71 245 3.0 5.0 0.00 0.28 0.01 44 1010.9
20260510194208 70 289 3.0 6.0 0.00 0.28 0.01 46 1010.9
20260510193708 70 332 1.0 3.0 0.00 0.28 0.01 44 1011.0
20260510193245 70 271 1.0 7.0 0.00 0.28 0.01 44 1010.9
20260510193138 70 244 0.0 7.0 0.00 0.28 0.01 43 1011.0
20260510192723 71 54 2.0 7.0 0.00 0.28 0.01 41 1010.9
20260510192221 72 88 1.0 7.0 0.00 0.28 0.01 39 1010.9
20260510191721 73 231 3.0 7.0 0.00 0.28 0.01 37 1010.8
20260510191218 73 221 1.0 7.0 0.00 0.28 0.01 37 1011.0
20260510190738 73 219 3.0 12.0 0.00 0.28 0.01 38 1010.9
20260510190214 74 203 4.0 12.0 0.00 0.28 0.01 35 1010.9
20260510185715 74 269 2.0 8.0 0.00 0.32 0.01 40 1011.0
20260510185207 73 134 4.0 8.0 0.00 0.32 0.01 37 1011.0
20260510184709 73 146 3.0 10.0 0.00 0.32 0.01 37 1011.0
20260510184209 73 266 3.0 10.0 0.00 0.32 0.01 38 1010.9
20260510183707 72 139 2.0 7.0 0.00 0.32 0.01 38 1011.0
20260510183207 71 266 2.0 7.0 0.00 0.32 0.01 40 1011.1
20260510182726 71 243 4.0 7.0 0.00 0.32 0.01 40 1011.0
20260510182224 70 72 2.0 6.0 0.00 0.32 0.01 41 1011.1
20260510181743 71 265 2.0 9.0 0.00 0.32 0.01 41 1011.0
20260510181634 70 274 1.0 9.0 0.00 0.32 0.01 41 1011.2
20260510181221 71 336 2.0 9.0 0.00 0.32 0.01 42 1011.1
20260510180720 70 238 2.0 6.0 0.00 0.32 0.01 43 1011.0
20260510180233 70 268 1.0 11.0 0.00 0.32 0.01 42 1011.2
20260510175710 71 245 4.0 11.0 0.00 0.42 0.01 38 1011.0
20260510175230 71 297 0.0 6.0 0.00 0.42 0.01 42 1011.0
20260510174709 72 129 3.0 8.0 0.00 0.42 0.01 39 1011.2
20260510174207 72 114 1.0 8.0 0.00 0.42 0.01 44 1011.2
20260510173708 71 263 2.0 7.0 0.00 0.42 0.01 45 1011.1
20260510173227 70 270 2.0 7.0 0.00 0.42 0.01 45 1011.2
20260510173140 69 187 2.0 7.0 0.00 0.42 0.01 47 1011.4
20260510172726 70 97 1.0 3.0 0.00 0.42 0.01 44 1011.2
20260510172223 69 240 0.0 2.0 0.00 0.42 0.01 43 1011.4
20260510171720 68 269 0.0 4.0 0.00 0.42 0.01 45 1011.6
20260510171216 68 291 1.0 4.0 0.00 0.42 0.01 45 1011.6
20260510170712 68 327 0.0 4.0 0.00 0.42 0.01 44 1011.6
20260510170229 68 93 0.0 4.0 0.00 0.42 0.01 46 1011.6
20260510165707 68 222 1.0 3.0 0.00 0.50 0.01 46 1011.7
20260510165225 68 125 1.0 3.0 0.00 0.50 0.01 47 1011.7
20260510164724 68 255 1.0 3.0 0.00 0.50 0.01 45 1011.8
20260510164220 68 84 1.0 9.0 0.00 0.50 0.01 46 1011.7
20260510163720 68 285 2.0 9.0 0.00 0.50 0.01 48 1011.8
20260510163217 68 233 1.0 4.0 0.00 0.50 0.01 47 1011.9
20260510162720 68 289 0.0 4.0 0.00 0.50 0.01 48 1011.9
20260510162217 68 108 1.0 4.0 0.00 0.50 0.01 47 1011.9
20260510161716 68 281 1.0 4.0 0.00 0.50 0.01 49 1011.9
20260510161232 67 75 1.0 4.0 0.00 0.50 0.01 48 1011.8
20260510160714 67 301 1.0 4.0 0.00 0.50 0.01 49 1012.0
20260510160210 66 110 0.0 3.0 0.00 0.50 0.01 52 1012.1
20260510155711 65 110 1.0 4.0 0.00 0.55 0.01 53 1012.1
20260510155209 64 110 1.0 5.0 0.00 0.55 0.01 50 1012.2
20260510154710 64 182 2.0 3.0 0.00 0.55 0.01 50 1012.2
20260510154208 63 126 1.0 3.0 0.00 0.55 0.01 51 1012.2
20260510153708 62 226 1.0 3.0 0.00 0.55 0.01 52 1012.3
20260510153224 63 285 2.0 3.0 0.00 0.55 0.01 52 1012.4
20260510153139 62 242 2.0 3.0 0.00 0.55 0.01 52 1012.7
20260510152723 63 243 2.0 4.0 0.00 0.55 0.01 52 1012.4
20260510152219 63 197 0.0 4.0 0.00 0.55 0.01 54 1012.3
20260510151715 62 238 0.0 2.0 0.00 0.55 0.01 55 1012.3
20260510151212 62 246 0.0 2.0 0.00 0.55 0.01 55 1012.3
20260510150714 61 270 1.0 2.0 0.00 0.55 0.01 54 1012.4
20260510150211 61 122 1.0 3.0 0.00 0.55 0.01 55 1012.5
20260510145710 60 111 1.0 3.0 0.00 0.59 0.01 56 1012.6
20260510145225 60 98 1.0 3.0 0.00 0.59 0.01 57 1012.5
20260510144725 60 138 1.0 2.0 0.00 0.59 0.01 56 1012.6
20260510144641 59 89 1.0 2.0 0.00 0.59 0.01 56 1012.8
20260510144244 60 110 0.0 2.0 0.00 0.59 0.01 58 1012.6
20260510143743 59 162 0.0 1.0 0.00 0.59 0.01 59 1012.6
20260510143217 58 225 0.0 1.0 0.00 0.59 0.01 58 1012.6
20260510142713 58 265 0.0 3.0 0.00 0.59 0.01 59 1012.6
20260510142211 57 249 1.0 3.0 0.00 0.59 0.01 59 1012.7
20260510141711 57 283 0.0 3.0 0.00 0.59 0.01 61 1012.8
20260510141207 56 148 0.0 2.0 0.00 0.59 0.01 62 1012.9
20260510140712 56 104 2.0 2.0 0.00 0.59 0.01 62 1012.8
20260510140211 55 148 0.0 2.0 0.00 0.59 0.01 63 1012.8
20260510135710 55 256 1.0 2.0 0.00 0.62 0.01 64 1012.8
20260510135248 55 82 0.0 2.0 0.00 0.62 0.01 64 1012.8
20260510134725 55 359 0.0 2.0 0.00 0.62 0.01 65 1012.7
20260510134640 54 359 0.0 2.0 0.00 0.62 0.01 65 1013.0
20260510134221 54 143 0.0 1.0 0.00 0.62 0.01 65 1012.8
20260510133722 54 148 0.0 0.0 0.00 0.62 0.01 65 1012.8
20260510133214 54 148 0.0 0.0 0.00 0.62 0.01 65 1012.7
20260510133135 53 148 0.0 0.0 0.00 0.62 0.01 65 1013.0
20260510132715 54 148 0.0 1.0 0.00 0.62 0.01 65 1012.7
20260510132212 53 146 0.0 1.0 0.00 0.62 0.01 65 1012.6
20260510131713 53 128 0.0 1.0 0.00 0.62 0.01 65 1012.5
20260510131232 53 125 0.0 4.0 0.00 0.62 0.01 65 1012.5
20260510130714 53 124 1.0 4.0 0.00 0.62 0.01 65 1012.5
20260510130212 53 156 0.0 0.0 0.00 0.62 0.01 65 1012.4
20260510125712 53 157 0.0 0.0 0.00 0.64 0.01 65 1012.5
20260510125208 53 156 0.0 1.0 0.00 0.64 0.01 65 1012.6
20260510124708 53 156 0.0 1.0 0.00 0.64 0.01 65 1012.7
20260510124207 52 156 0.0 0.0 0.00 0.64 0.01 65 1012.7
20260510123744 52 156 0.0 2.0 0.00 0.64 0.01 66 1012.7
20260510123218 52 157 0.0 2.0 0.00 0.64 0.01 66 1012.6
20260510123134 51 157 0.0 2.0 0.00 0.64 0.01 65 1012.9
20260510122737 52 251 0.0 1.0 0.00 0.64 0.01 66 1012.5
20260510122214 51 251 0.0 1.0 0.00 0.64 0.01 66 1012.5
20260510121714 51 151 0.0 0.0 0.00 0.64 0.01 66 1012.6
20260510121210 50 151 0.0 0.0 0.00 0.64 0.01 66 1012.5
20260510120711 50 151 0.0 0.0 0.00 0.64 0.01 66 1012.5
20260510120209 50 151 0.0 0.0 0.00 0.64 0.01 66 1012.4
20260510115710 50 151 0.0 0.0 0.00 0.64 0.01 66 1012.4
20260510115227 50 151 0.0 0.0 0.00 0.64 0.01 66 1012.5
20260510114721 50 151 0.0 0.0 0.00 0.64 0.01 66 1012.4
20260510114641 49 151 0.0 0.0 0.00 0.64 0.01 66 1012.7
20260510114241 50 152 0.0 0.0 0.00 0.64 0.01 66 1012.3
20260510113719 49 151 0.0 0.0 0.00 0.64 0.01 66 1012.3
20260510113238 49 151 0.0 0.0 0.00 0.64 0.01 66 1012.3
20260510112718 49 151 0.0 0.0 0.00 0.64 0.01 66 1012.2
20260510112215 49 151 0.0 0.0 0.00 0.64 0.01 66 1012.3
20260510111736 49 151 0.0 0.0 0.00 0.64 0.01 66 1012.2
20260510111213 48 151 0.0 0.0 0.00 0.64 0.01 66 1012.1
20260510110714 48 152 0.0 0.0 0.00 0.64 0.01 66 1012.1
20260510110228 48 151 0.0 0.0 0.00 0.64 0.01 66 1012.3
20260510105747 48 152 0.0 0.0 0.00 0.64 0.01 66 1012.1
20260510105224 48 152 0.0 0.0 0.00 0.64 0.01 66 1012.1
20260510104725 48 151 0.0 0.0 0.00 0.64 0.01 66 1011.9
20260510104637 47 151 0.0 0.0 0.00 0.64 0.01 66 1012.2
20260510104222 48 152 0.0 0.0 0.00 0.64 0.01 66 1011.8
20260510103743 48 151 0.0 0.0 0.00 0.64 0.01 66 1011.8
20260510103219 48 152 0.0 0.0 0.00 0.64 0.01 66 1011.9
20260510103133 47 152 0.0 0.0 0.00 0.64 0.01 66 1012.2
20260510102738 48 152 0.0 0.0 0.00 0.64 0.01 66 1011.8
20260510102214 47 152 0.0 0.0 0.00 0.64 0.01 66 1011.7
20260510101711 47 151 0.0 0.0 0.00 0.64 0.01 66 1011.5
20260510101210 47 151 0.0 0.0 0.00 0.64 0.01 66 1011.4
20260510100711 47 152 0.0 0.0 0.00 0.64 0.01 66 1011.7
20260510100211 47 152 0.0 0.0 0.00 0.64 0.01 66 1011.2
20260510095710 47 152 0.0 0.0 0.00 0.64 0.01 66 1011.3
20260510095207 47 152 0.0 0.0 0.00 0.64 0.01 66 1011.5
20260510094726 47 152 0.0 0.0 0.00 0.64 0.01 66 1011.4
20260510094639 46 152 0.0 0.0 0.00 0.64 0.01 66 1011.8
20260510094243 47 152 0.0 0.0 0.00 0.64 0.01 66 1011.2
20260510093720 47 152 0.0 0.0 0.00 0.64 0.01 66 1011.2
20260510093217 47 152 0.0 0.0 0.00 0.64 0.01 66 1011.2
20260510093131 46 151 0.0 0.0 0.00 0.64 0.01 66 1011.6
20260510092733 47 152 0.0 0.0 0.00 0.64 0.01 66 1011.2
20260510092211 47 151 0.0 0.0 0.00 0.64 0.01 66 1011.5
20260510091712 47 151 0.0 0.0 0.00 0.64 0.01 66 1011.4
20260510091210 47 152 0.0 0.0 0.00 0.64 0.01 66 1011.5
20260510090710 47 152 0.0 0.0 0.00 0.64 0.01 66 1011.6
20260510090208 47 152 0.0 0.0 0.00 0.64 0.01 66 1011.5
20260510085708 47 152 0.0 0.0 0.00 0.64 0.01 66 1011.4
20260510085208 47 151 0.0 0.0 0.00 0.64 0.01 66 1011.3
20260510084729 47 151 0.0 0.0 0.00 0.64 0.01 66 1011.4
20260510084227 47 264 0.0 0.0 0.00 0.64 0.01 66 1011.6
20260510083208 47 264 0.0 0.0 0.00 0.64 0.01 66 1011.5
20260510082740 47 264 0.0 0.0 0.00 0.64 0.01 66 1011.4
20260510082234 47 264 0.0 0.0 0.00 0.64 0.01 66 1011.4
20260510081714 47 264 0.0 0.0 0.00 0.64 0.01 66 1011.4
20260510081234 47 264 0.0 0.0 0.00 0.64 0.01 66 1011.2
20260510080712 47 264 0.0 0.0 0.00 0.64 0.01 66 1011.2
20260510080209 47 264 0.0 0.0 0.00 0.64 0.01 66 1011.1
20260510075709 47 264 0.0 0.0 0.00 0.64 0.01 66 1011.2
20260510075221 47 264 0.0 0.0 0.00 0.64 0.01 66 1011.3
20260510074720 47 264 0.0 0.0 0.00 0.64 0.01 66 1011.4
20260510074640 46 264 0.0 0.0 0.00 0.64 0.01 66 1011.8
20260510074217 47 264 0.0 0.0 0.00 0.64 0.01 66 1011.2
20260510073719 47 264 0.0 0.0 0.00 0.64 0.01 66 1011.1
20260510073235 47 264 0.0 0.0 0.00 0.64 0.01 66 1011.3
20260510072715 47 264 0.0 0.0 0.00 0.64 0.01 66 1011.2
20260510072213 47 264 0.0 0.0 0.00 0.64 0.01 66 1011.2
20260510071714 47 264 0.0 0.0 0.00 0.64 0.01 66 1011.3
20260510071212 47 75 0.0 0.0 0.00 0.64 0.01 66 1011.1
20260510070713 47 75 0.0 0.0 0.00 0.64 0.01 66 1011.2
20260510070211 47 75 0.0 0.0 0.00 0.64 0.01 66 1011.1
20260510065724 47 75 0.0 0.0 0.00 0.64 0.01 66 1011.2
20260510065222 47 75 0.0 0.0 0.00 0.64 0.01 66 1011.3
20260510064720 47 75 0.0 0.0 0.00 0.64 0.01 66 1011.3
20260510064639 46 75 0.0 0.0 0.00 0.64 0.01 66 1011.7
20260510064218 47 75 0.0 0.0 0.00 0.64 0.01 66 1011.3
20260510063736 47 75 0.0 0.0 0.00 0.64 0.01 66 1011.2
20260510063233 47 75 0.0 0.0 0.00 0.64 0.01 66 1011.3
20260510062732 47 75 0.0 0.0 0.00 0.64 0.01 66 1011.4
20260510062209 46 75 0.0 0.0 0.00 0.64 0.01 66 1011.3
20260510061709 46 75 0.0 0.0 0.00 0.64 0.01 66 1011.2
20260510061222 47 75 0.0 0.0 0.00 0.64 0.01 66 1011.3
20260510060721 47 75 0.0 0.0 0.00 0.64 0.01 66 1011.5
20260510060236 47 75 0.0 0.0 0.00 0.64 0.01 66 1011.6
20260510060129 46 75 0.0 0.0 0.01 0.64 0.01 66 1011.9
20260510055717 46 75 0.0 0.0 0.01 0.64 0.01 66 1011.7
20260510055213 46 75 0.0 0.0 0.01 0.64 0.01 66 1011.7
20260510054715 46 75 0.0 0.0 0.01 0.64 0.01 66 1011.5
20260510054215 46 75 0.0 0.0 0.01 0.64 0.01 66 1011.5
20260510053714 46 75 0.0 0.0 0.01 0.64 0.01 66 1011.7
20260510053213 46 75 0.0 0.0 0.01 0.64 0.01 66 1011.7
20260510052714 46 75 0.0 0.0 0.01 0.64 0.01 66 1011.8
20260510052212 46 75 0.0 0.0 0.01 0.64 0.01 66 1011.8
20260510051727 46 75 0.0 0.0 0.01 0.64 0.01 66 1011.8
20260510051225 46 75 0.0 0.0 0.01 0.64 0.01 66 1011.8
20260510050705 47 75 0.0 0.0 0.01 0.64 0.01 66 1011.7
20260510050225 47 75 0.0 0.0 0.00 0.63 0.00 66 1011.8
20260510050138 46 75 0.0 0.0 0.00 0.63 0.00 66 1012.2
20260510045722 46 75 0.0 0.0 0.00 0.63 0.00 66 1011.9
20260510045221 46 75 0.0 0.0 0.00 0.63 0.00 66 1011.9
20260510044718 46 75 0.0 0.0 0.00 0.63 0.00 66 1011.9
20260510044216 47 75 0.0 0.0 0.00 0.63 0.00 66 1011.9
20260510043716 46 75 0.0 0.0 0.00 0.63 0.00 66 1012.0
20260510043215 46 75 0.0 0.0 0.00 0.63 0.00 66 1011.9
20260510042715 46 75 0.0 0.0 0.00 0.63 0.00 66 1012.0
20260510042208 46 75 0.0 0.0 0.00 0.63 0.00 66 1012.1
20260510041709 46 75 0.0 0.0 0.00 0.63 0.00 66 1012.0
20260510041205 46 75 0.0 0.0 0.00 0.63 0.00 66 1012.0
20260510040724 46 75 0.0 0.0 0.00 0.63 0.00 66 1012.0
20260510040218 46 75 0.0 0.0 0.00 0.63 0.00 66 1011.9
20260510040137 46 75 0.0 0.0 0.00 0.63 0.63 66 1012.2
20260510035722 46 75 0.0 0.0 0.00 0.63 0.63 66 1011.9
20260510035218 46 75 0.0 0.0 0.00 0.63 0.63 66 1012.0
20260510034719 46 75 0.0 0.0 0.00 0.63 0.63 66 1012.0
20260510034635 46 75 0.0 0.0 0.00 0.63 0.63 66 1012.4
20260510034216 46 75 0.0 0.0 0.00 0.63 0.63 66 1012.1
20260510033718 46 75 0.0 0.0 0.00 0.63 0.63 66 1012.3
20260510033215 46 75 0.0 0.0 0.00 0.63 0.63 66 1012.3
20260510032711 46 75 0.0 0.0 0.00 0.63 0.63 66 1012.3
20260510032218 46 75 0.0 0.0 0.00 0.63 0.63 66 1012.4
20260510031706 46 75 0.0 0.0 0.00 0.63 0.63 66 1012.3
20260510031222 46 75 0.0 0.0 0.00 0.63 0.63 66 1012.3
20260510030719 46 75 0.0 0.0 0.00 0.63 0.63 66 1012.4
20260510030215 46 75 0.0 0.0 0.00 0.63 0.63 66 1012.3
20260510025722 46 75 0.0 0.0 0.00 0.63 0.63 66 1012.5
20260510025211 46 75 0.0 0.0 0.00 0.63 0.63 65 1012.4
20260510024723 46 75 0.0 0.0 0.00 0.63 0.63 66 1012.6
20260510024637 46 75 0.0 0.0 0.00 0.63 0.63 66 1013.0
20260510024214 46 75 0.0 0.0 0.00 0.63 0.63 66 1012.6
20260510023711 46 75 0.0 0.0 0.00 0.63 0.63 66 1012.7
20260510023213 46 75 0.0 0.0 0.00 0.63 0.63 65 1012.6
20260510023131 46 75 0.0 0.0 0.00 0.63 0.63 65 1012.9
20260510022713 46 75 0.0 0.0 0.00 0.63 0.63 65 1012.5
20260510022209 46 75 0.0 0.0 0.00 0.63 0.63 65 1012.5
20260510021709 46 75 0.0 0.0 0.00 0.63 0.63 65 1012.6
20260510021208 46 75 0.0 0.0 0.00 0.63 0.63 65 1012.6
20260510020709 46 75 0.0 0.0 0.00 0.63 0.63 65 1012.8
20260510020206 46 75 0.0 0.0 0.00 0.63 0.63 65 1012.9
20260510015728 46 75 0.0 0.0 0.00 0.63 0.63 65 1012.9
20260510015204 46 75 0.0 0.0 0.00 0.63 0.63 66 1013.0
20260510014721 46 75 0.0 0.0 0.00 0.63 0.63 65 1013.0
20260510014639 46 75 0.0 0.0 0.00 0.63 0.63 65 1013.4
20260510014257 46 75 0.0 0.0 0.00 0.63 0.63 65 1012.9
20260510013712 46 75 0.0 0.0 0.00 0.63 0.63 65 1013.0
20260510013251 46 75 0.0 0.0 0.00 0.63 0.63 65 1012.8
20260510012705 46 75 0.0 0.0 0.00 0.63 0.63 65 1012.7
20260510012222 46 75 0.0 0.0 0.00 0.63 0.63 65 1012.6
20260510011721 46 75 0.0 0.0 0.00 0.63 0.63 65 1012.7
20260510011633 46 75 0.0 0.0 0.00 0.63 0.63 65 1013.2
20260510011233 46 75 0.0 0.0 0.00 0.63 0.63 65 1012.6
20260510010713 46 75 0.0 0.0 0.00 0.63 0.63 65 1012.7
20260510010211 46 75 0.0 0.0 0.00 0.63 0.63 65 1012.5
20260510005810 46 75 0.0 0.0 0.00 0.63 0.63 65 1012.6
20260510005222 46 75 0.0 0.0 0.00 0.63 0.63 65 1012.7
20260510004742 46 75 0.0 0.0 0.00 0.63 0.63 65 1012.7
20260510004633 46 75 0.0 0.0 0.00 0.63 0.63 65 1013.1
20260510004216 46 75 0.0 0.0 0.00 0.63 0.63 65 1012.7
20260510003715 46 75 0.0 0.0 0.00 0.63 0.63 65 1012.7
20260510003214 46 75 0.0 0.0 0.00 0.63 0.63 65 1012.8
20260510002732 46 75 0.0 0.0 0.00 0.63 0.63 65 1012.6
20260510002211 46 74 0.0 0.0 0.00 0.63 0.63 65 1012.7
20260510001710 46 111 0.0 0.0 0.00 0.63 0.63 65 1012.7
20260510001209 46 110 0.0 0.0 0.00 0.63 0.63 65 1012.7
20260510000709 46 110 0.0 0.0 0.00 0.63 0.63 65 1012.8
20260510000207 46 110 0.0 0.0 0.00 0.63 0.63 65 1012.8
20260509235706 46 110 0.0 0.0 0.00 0.63 0.63 65 1012.7
20260509235223 46 110 0.0 0.0 0.00 0.63 0.63 65 1012.7
20260509234721 46 110 0.0 0.0 0.00 0.63 0.63 65 1012.6
20260509234633 46 110 0.0 0.0 0.00 0.63 0.63 65 1013.0
20260509234217 46 110 0.0 0.0 0.01 0.63 0.63 65 1012.5
20260509233718 46 110 0.0 0.0 0.01 0.63 0.63 65 1012.5
20260509233230 46 110 0.0 0.0 0.01 0.63 0.63 65 1012.3
20260509232709 46 110 0.0 0.0 0.02 0.63 0.63 65 1012.3
20260509232206 46 110 0.0 0.0 0.02 0.63 0.63 65 1012.3
20260509231706 46 110 0.0 0.0 0.03 0.63 0.63 65 1012.3
20260509231245 46 110 0.0 0.0 0.03 0.63 0.63 65 1012.2